| time (UTC) | temp F | wind direction | speed MPH | gust MPH | rain 1hr in | rain 24hr in | rain mn in | humidity % | barometer mb |
| 20260507113504 | 55 | 37 | 4.0 | 11.0 | 0.00 | 0.08 | 0.00 | 83 | 1019.6 |
| 20260507113005 | 55 | 33 | 6.0 | 11.0 | 0.00 | 0.08 | 0.00 | 83 | 1019.4 |
| 20260507112504 | 55 | 33 | 5.0 | 10.0 | 0.00 | 0.08 | 0.00 | 83 | 1019.4 |
| 20260507112004 | 55 | 33 | 4.0 | 10.0 | 0.00 | 0.08 | 0.00 | 83 | 1019.2 |
| 20260507111003 | 55 | 33 | 5.0 | 16.0 | 0.00 | 0.08 | 0.00 | 83 | 1019.3 |
| 20260507110503 | 55 | 31 | 5.0 | 16.0 | 0.00 | 0.08 | 0.00 | 83 | 1019.2 |
| 20260507110004 | 55 | 30 | 5.0 | 17.0 | 0.00 | 0.08 | 0.00 | 83 | 1019.3 |
| 20260507105504 | 55 | 35 | 5.0 | 17.0 | 0.00 | 0.08 | 0.00 | 84 | 1019.3 |
| 20260507105004 | 55 | 35 | 6.0 | 14.0 | 0.00 | 0.08 | 0.00 | 84 | 1019.1 |
| 20260507104504 | 55 | 32 | 6.0 | 14.0 | 0.00 | 0.08 | 0.00 | 84 | 1019.2 |
| 20260507104004 | 55 | 34 | 6.0 | 14.0 | 0.00 | 0.08 | 0.00 | 84 | 1019.1 |
| 20260507103504 | 56 | 34 | 5.0 | 13.0 | 0.00 | 0.08 | 0.00 | 84 | 1019.1 |
| 20260507102504 | 56 | 39 | 1.0 | 11.0 | 0.00 | 0.08 | 0.00 | 83 | 1019.2 |
| 20260507102004 | 56 | 19 | 1.0 | 12.0 | 0.00 | 0.08 | 0.00 | 83 | 1019.3 |
| 20260507101004 | 56 | 0 | 0.0 | 9.0 | 0.00 | 0.08 | 0.00 | 82 | 1019.4 |
| 20260507100503 | 56 | 0 | 0.0 | 9.0 | 0.00 | 0.08 | 0.00 | 82 | 1019.5 |
| 20260507100005 | 56 | 0 | 0.0 | 6.0 | 0.00 | 0.08 | 0.00 | 82 | 1019.5 |
| 20260507095504 | 56 | 0 | 0.0 | 6.0 | 0.00 | 0.08 | 0.00 | 82 | 1019.4 |
| 20260507094504 | 56 | 0 | 0.0 | 7.0 | 0.00 | 0.08 | 0.00 | 82 | 1019.4 |
| 20260507093503 | 56 | 0 | 0.0 | 8.0 | 0.00 | 0.08 | 0.00 | 82 | 1019.2 |
| 20260507093004 | 56 | 0 | 0.0 | 10.0 | 0.00 | 0.08 | 0.00 | 82 | 1019.2 |
| 20260507092504 | 56 | 59 | 1.0 | 11.0 | 0.00 | 0.08 | 0.00 | 82 | 1019.1 |
| 20260507091504 | 56 | 0 | 0.0 | 10.0 | 0.00 | 0.08 | 0.00 | 81 | 1019.0 |
| 20260507091004 | 56 | 0 | 0.0 | 5.0 | 0.00 | 0.08 | 0.00 | 82 | 1019.0 |
| 20260507090503 | 56 | 0 | 0.0 | 6.0 | 0.00 | 0.08 | 0.00 | 81 | 1018.8 |
| 20260507090005 | 56 | 0 | 0.0 | 6.0 | 0.00 | 0.08 | 0.00 | 81 | 1018.8 |
| 20260507085503 | 57 | 0 | 0.0 | 4.0 | 0.00 | 0.08 | 0.00 | 81 | 1018.7 |
| 20260507084504 | 57 | 0 | 0.0 | 3.0 | 0.00 | 0.08 | 0.00 | 80 | 1018.6 |
| 20260507083503 | 57 | 0 | 0.0 | 6.0 | 0.00 | 0.08 | 0.00 | 80 | 1018.5 |
| 20260507082503 | 57 | 0 | 0.0 | 1.0 | 0.00 | 0.08 | 0.00 | 81 | 1018.5 |
| 20260507082003 | 57 | 0 | 0.0 | 0.0 | 0.00 | 0.08 | 0.00 | 81 | 1018.5 |
| 20260507081504 | 57 | 0 | 0.0 | 0.0 | 0.00 | 0.08 | 0.00 | 81 | 1018.3 |
| 20260507080504 | 57 | 0 | 0.0 | 1.0 | 0.00 | 0.08 | 0.00 | 81 | 1018.2 |
| 20260507080005 | 57 | 0 | 0.0 | 4.0 | 0.00 | 0.08 | 0.00 | 81 | 1018.2 |
| 20260507075504 | 57 | 0 | 0.0 | 4.0 | 0.00 | 0.08 | 0.00 | 81 | 1018.3 |
| 20260507074004 | 58 | 0 | 0.0 | 0.0 | 0.00 | 0.08 | 0.00 | 80 | 1018.1 |
| 20260507073503 | 58 | 0 | 0.0 | 0.0 | 0.00 | 0.08 | 0.00 | 80 | 1018.1 |
| 20260507073004 | 58 | 0 | 0.0 | 0.0 | 0.00 | 0.08 | 0.00 | 80 | 1017.8 |
| 20260507072503 | 58 | 0 | 0.0 | 1.0 | 0.00 | 0.08 | 0.00 | 80 | 1017.8 |
| 20260507072004 | 58 | 0 | 0.0 | 2.0 | 0.00 | 0.08 | 0.00 | 79 | 1017.7 |
| 20260507071504 | 58 | 0 | 0.0 | 2.0 | 0.00 | 0.08 | 0.00 | 79 | 1017.7 |
| 20260507071004 | 58 | 0 | 0.0 | 2.0 | 0.00 | 0.08 | 0.00 | 80 | 1017.7 |
| 20260507070504 | 58 | 0 | 0.0 | 2.0 | 0.00 | 0.08 | 0.00 | 79 | 1017.7 |
| 20260507070009 | 58 | 0 | 0.0 | 0.0 | 0.00 | 0.08 | 0.00 | 79 | 1017.7 |
| 20260507065504 | 58 | 0 | 0.0 | 1.0 | 0.00 | 0.08 | 0.00 | 79 | 1017.7 |
| 20260507064505 | 58 | 0 | 0.0 | 2.0 | 0.00 | 0.08 | 0.00 | 79 | 1017.4 |
| 20260507063504 | 59 | 0 | 0.0 | 1.0 | 0.00 | 0.08 | 0.00 | 81 | 1017.2 |
| 20260507063005 | 58 | 0 | 0.0 | 1.0 | 0.00 | 0.08 | 0.00 | 80 | 1017.0 |
| 20260507062504 | 58 | 0 | 0.0 | 0.0 | 0.00 | 0.08 | 0.00 | 80 | 1016.9 |
| 20260507062005 | 58 | 0 | 0.0 | 0.0 | 0.00 | 0.08 | 0.00 | 80 | 1016.8 |
| 20260507061505 | 58 | 0 | 0.0 | 0.0 | 0.00 | 0.08 | 0.00 | 80 | 1016.9 |
| 20260507061005 | 58 | 0 | 0.0 | 4.0 | 0.00 | 0.08 | 0.00 | 80 | 1016.8 |
| 20260507060505 | 59 | 0 | 0.0 | 4.0 | 0.00 | 0.08 | 0.00 | 80 | 1016.8 |
| 20260507055505 | 59 | 0 | 0.0 | 0.0 | 0.00 | 0.08 | 0.00 | 79 | 1016.9 |
| 20260507055006 | 59 | 0 | 0.0 | 0.0 | 0.00 | 0.08 | 0.00 | 79 | 1016.9 |
| 20260507054505 | 59 | 0 | 0.0 | 2.0 | 0.00 | 0.08 | 0.00 | 79 | 1016.9 |
| 20260507054006 | 59 | 0 | 0.0 | 2.0 | 0.00 | 0.08 | 0.00 | 79 | 1017.0 |
| 20260507053504 | 59 | 0 | 0.0 | 1.0 | 0.00 | 0.08 | 0.00 | 78 | 1016.9 |
| 20260507053005 | 59 | 0 | 0.0 | 1.0 | 0.00 | 0.08 | 0.00 | 78 | 1017.0 |
| 20260507052506 | 60 | 0 | 0.0 | 1.0 | 0.00 | 0.08 | 0.00 | 78 | 1016.9 |
| 20260507052004 | 60 | 0 | 0.0 | 1.0 | 0.00 | 0.08 | 0.00 | 78 | 1016.8 |
| 20260507051005 | 60 | 0 | 0.0 | 9.0 | 0.00 | 0.08 | 0.00 | 78 | 1016.8 |
| 20260507050505 | 60 | 78 | 1.0 | 9.0 | 0.00 | 0.08 | 0.00 | 78 | 1016.6 |
| 20260507050006 | 60 | 0 | 0.0 | 7.0 | 0.00 | 0.08 | 0.00 | 78 | 1016.9 |
| 20260507045505 | 61 | 0 | 0.0 | 3.0 | 0.00 | 0.08 | 0.08 | 78 | 1016.8 |
| 20260507045005 | 61 | 0 | 0.0 | 3.0 | 0.00 | 0.08 | 0.08 | 78 | 1016.7 |
| 20260507044506 | 61 | 0 | 0.0 | 3.0 | 0.00 | 0.08 | 0.08 | 78 | 1016.7 |
| 20260507044004 | 61 | 0 | 0.0 | 3.0 | 0.00 | 0.08 | 0.08 | 79 | 1016.7 |
| 20260507043005 | 62 | 0 | 0.0 | 0.0 | 0.00 | 0.08 | 0.08 | 81 | 1016.5 |
| 20260507042504 | 62 | 0 | 0.0 | 1.0 | 0.00 | 0.08 | 0.08 | 80 | 1016.3 |
| 20260507042005 | 62 | 0 | 0.0 | 1.0 | 0.00 | 0.08 | 0.08 | 80 | 1016.3 |
| 20260507041505 | 62 | 0 | 0.0 | 0.0 | 0.00 | 0.08 | 0.08 | 79 | 1016.4 |
| 20260507041004 | 62 | 0 | 0.0 | 0.0 | 0.00 | 0.08 | 0.08 | 79 | 1016.2 |
| 20260507040005 | 62 | 0 | 0.0 | 0.0 | 0.00 | 0.08 | 0.08 | 79 | 1016.0 |
| 20260507035504 | 63 | 0 | 0.0 | 0.0 | 0.00 | 0.08 | 0.08 | 78 | 1015.9 |
| 20260507035005 | 63 | 0 | 0.0 | 0.0 | 0.00 | 0.08 | 0.08 | 78 | 1015.7 |
| 20260507034506 | 63 | 0 | 0.0 | 4.0 | 0.00 | 0.08 | 0.08 | 78 | 1015.6 |
| 20260507034005 | 63 | 115 | 1.0 | 5.0 | 0.00 | 0.08 | 0.08 | 77 | 1015.5 |
| 20260507033505 | 63 | 118 | 1.0 | 5.0 | 0.00 | 0.08 | 0.08 | 77 | 1015.3 |
| 20260507033005 | 63 | 0 | 0.0 | 4.0 | 0.00 | 0.08 | 0.08 | 77 | 1015.2 |
| 20260507032004 | 64 | 0 | 0.0 | 3.0 | 0.00 | 0.08 | 0.08 | 76 | 1015.2 |
| 20260507031505 | 64 | 109 | 1.0 | 6.0 | 0.00 | 0.08 | 0.08 | 75 | 1015.1 |
| 20260507031005 | 64 | 0 | 0.0 | 6.0 | 0.00 | 0.08 | 0.08 | 75 | 1015.0 |
| 20260507030005 | 64 | 115 | 1.0 | 6.0 | 0.00 | 0.08 | 0.08 | 74 | 1014.9 |
| 20260507025504 | 65 | 112 | 1.0 | 6.0 | 0.00 | 0.08 | 0.08 | 74 | 1015.0 |
| 20260507025005 | 65 | 109 | 1.0 | 6.0 | 0.00 | 0.08 | 0.08 | 73 | 1015.0 |
| 20260507024504 | 65 | 0 | 0.0 | 0.0 | 0.00 | 0.08 | 0.08 | 73 | 1014.9 |
| 20260507024005 | 65 | 0 | 0.0 | 0.0 | 0.00 | 0.08 | 0.08 | 72 | 1014.8 |
| 20260507022505 | 66 | 0 | 0.0 | 0.0 | 0.00 | 0.08 | 0.08 | 71 | 1014.5 |
| 20260507022005 | 66 | 0 | 0.0 | 0.0 | 0.00 | 0.08 | 0.08 | 70 | 1014.4 |
| 20260507021505 | 66 | 0 | 0.0 | 0.0 | 0.00 | 0.08 | 0.08 | 70 | 1014.3 |
| 20260507020504 | 67 | 119 | 1.0 | 11.0 | 0.00 | 0.08 | 0.08 | 68 | 1014.4 |
| 20260507015506 | 68 | 0 | 0.0 | 1.0 | 0.00 | 0.08 | 0.08 | 66 | 1014.1 |
| 20260507015004 | 68 | 0 | 0.0 | 0.0 | 0.00 | 0.08 | 0.08 | 65 | 1014.1 |
| 20260507014505 | 68 | 0 | 0.0 | 0.0 | 0.00 | 0.08 | 0.08 | 64 | 1014.1 |
| 20260507014005 | 68 | 0 | 0.0 | 0.0 | 0.00 | 0.08 | 0.08 | 64 | 1014.0 |
| 20260507013504 | 69 | 0 | 0.0 | 0.0 | 0.00 | 0.08 | 0.08 | 64 | 1013.9 |
| 20260507013005 | 69 | 0 | 0.0 | 0.0 | 0.00 | 0.08 | 0.08 | 63 | 1013.9 |
| 20260507012505 | 69 | 0 | 0.0 | 0.0 | 0.00 | 0.08 | 0.08 | 63 | 1013.9 |
| 20260507012004 | 69 | 0 | 0.0 | 0.0 | 0.00 | 0.08 | 0.08 | 63 | 1013.9 |
| 20260507011505 | 69 | 0 | 0.0 | 1.0 | 0.00 | 0.08 | 0.08 | 63 | 1013.9 |
| 20260507010504 | 70 | 0 | 0.0 | 0.0 | 0.00 | 0.08 | 0.08 | 63 | 1013.6 |
| 20260507005504 | 70 | 0 | 0.0 | 5.0 | 0.00 | 0.08 | 0.08 | 62 | 1013.6 |
| 20260507005005 | 71 | 0 | 0.0 | 5.0 | 0.00 | 0.08 | 0.08 | 62 | 1013.6 |
| 20260507004505 | 71 | 95 | 1.0 | 8.0 | 0.00 | 0.08 | 0.08 | 62 | 1013.5 |
| 20260507004005 | 71 | 88 | 2.0 | 8.0 | 0.00 | 0.08 | 0.08 | 62 | 1013.5 |
| 20260507002504 | 70 | 114 | 1.0 | 7.0 | 0.00 | 0.08 | 0.08 | 62 | 1013.3 |
| 20260507002005 | 71 | 0 | 0.0 | 5.0 | 0.00 | 0.08 | 0.08 | 62 | 1013.3 |
| 20260507001505 | 71 | 0 | 0.0 | 9.0 | 0.00 | 0.08 | 0.08 | 62 | 1013.2 |
| 20260507001005 | 71 | 0 | 0.0 | 9.0 | 0.00 | 0.08 | 0.08 | 62 | 1013.2 |
| 20260507000005 | 71 | 0 | 0.0 | 0.0 | 0.00 | 0.08 | 0.08 | 61 | 1013.2 |
| 20260506235505 | 71 | 0 | 0.0 | 0.0 | 0.00 | 0.08 | 0.08 | 61 | 1013.4 |
| 20260506235004 | 71 | 0 | 0.0 | 0.0 | 0.00 | 0.08 | 0.08 | 61 | 1013.4 |
| 20260506234505 | 71 | 0 | 0.0 | 0.0 | 0.00 | 0.08 | 0.08 | 62 | 1013.3 |
| 20260506234005 | 71 | 0 | 0.0 | 0.0 | 0.00 | 0.08 | 0.08 | 61 | 1013.3 |
| 20260506233504 | 71 | 0 | 0.0 | 0.0 | 0.00 | 0.08 | 0.08 | 61 | 1013.1 |
| 20260506233005 | 71 | 0 | 0.0 | 0.0 | 0.00 | 0.08 | 0.08 | 61 | 1013.2 |
| 20260506232504 | 71 | 0 | 0.0 | 0.0 | 0.00 | 0.08 | 0.08 | 61 | 1013.3 |
| 20260506232004 | 71 | 0 | 0.0 | 0.0 | 0.00 | 0.08 | 0.08 | 62 | 1013.3 |
| 20260506231505 | 71 | 0 | 0.0 | 0.0 | 0.00 | 0.08 | 0.08 | 62 | 1013.3 |
| 20260506231005 | 72 | 0 | 0.0 | 0.0 | 0.00 | 0.08 | 0.08 | 61 | 1013.2 |
| 20260506230505 | 72 | 0 | 0.0 | 0.0 | 0.00 | 0.08 | 0.08 | 61 | 1013.2 |
| 20260506230005 | 72 | 0 | 0.0 | 0.0 | 0.00 | 0.08 | 0.08 | 61 | 1013.3 |
| 20260506225504 | 72 | 0 | 0.0 | 0.0 | 0.00 | 0.08 | 0.08 | 60 | 1013.2 |
| 20260506224505 | 72 | 0 | 0.0 | 0.0 | 0.00 | 0.08 | 0.08 | 61 | 1013.2 |
| 20260506224004 | 72 | 0 | 0.0 | 0.0 | 0.00 | 0.08 | 0.08 | 61 | 1013.1 |
| 20260506223505 | 72 | 0 | 0.0 | 0.0 | 0.00 | 0.08 | 0.08 | 62 | 1013.0 |
| 20260506222004 | 72 | 0 | 0.0 | 0.0 | 0.00 | 0.08 | 0.08 | 61 | 1013.1 |
| 20260506221505 | 72 | 0 | 0.0 | 0.0 | 0.00 | 0.08 | 0.08 | 61 | 1013.1 |
| 20260506221004 | 72 | 0 | 0.0 | 0.0 | 0.00 | 0.08 | 0.08 | 61 | 1013.1 |
| 20260506220504 | 72 | 0 | 0.0 | 0.0 | 0.00 | 0.08 | 0.08 | 62 | 1013.1 |
| 20260506220005 | 72 | 0 | 0.0 | 0.0 | 0.00 | 0.08 | 0.08 | 61 | 1013.0 |
| 20260506215505 | 72 | 0 | 0.0 | 0.0 | 0.00 | 0.08 | 0.08 | 62 | 1013.2 |
| 20260506215004 | 72 | 0 | 0.0 | 0.0 | 0.00 | 0.08 | 0.08 | 61 | 1013.2 |
| 20260506214004 | 72 | 0 | 0.0 | 0.0 | 0.00 | 0.08 | 0.08 | 61 | 1013.4 |
| 20260506213505 | 72 | 0 | 0.0 | 0.0 | 0.00 | 0.08 | 0.08 | 62 | 1013.4 |
| 20260506213005 | 71 | 0 | 0.0 | 0.0 | 0.00 | 0.08 | 0.08 | 63 | 1013.4 |
| 20260506212504 | 71 | 0 | 0.0 | 0.0 | 0.00 | 0.08 | 0.08 | 63 | 1013.4 |
| 20260506212004 | 70 | 0 | 0.0 | 0.0 | 0.00 | 0.08 | 0.08 | 65 | 1013.4 |
| 20260506211505 | 70 | 0 | 0.0 | 0.0 | 0.00 | 0.08 | 0.08 | 64 | 1013.5 |
| 20260506210504 | 70 | 0 | 0.0 | 2.0 | 0.00 | 0.08 | 0.08 | 63 | 1013.4 |
| 20260506205504 | 70 | 0 | 0.0 | 0.0 | 0.00 | 0.08 | 0.08 | 64 | 1013.6 |
| 20260506205004 | 70 | 0 | 0.0 | 0.0 | 0.00 | 0.08 | 0.08 | 65 | 1013.6 |
| 20260506204505 | 70 | 0 | 0.0 | 0.0 | 0.00 | 0.08 | 0.08 | 64 | 1013.8 |
| 20260506204004 | 69 | 0 | 0.0 | 0.0 | 0.00 | 0.08 | 0.08 | 65 | 1013.8 |
| 20260506203504 | 69 | 0 | 0.0 | 0.0 | 0.00 | 0.08 | 0.08 | 65 | 1013.8 |
| 20260506203005 | 69 | 0 | 0.0 | 0.0 | 0.00 | 0.08 | 0.08 | 65 | 1013.9 |
| 20260506202505 | 68 | 0 | 0.0 | 0.0 | 0.00 | 0.08 | 0.08 | 68 | 1014.2 |
| 20260506202004 | 68 | 0 | 0.0 | 0.0 | 0.00 | 0.08 | 0.08 | 68 | 1014.2 |
| 20260506201504 | 68 | 0 | 0.0 | 1.0 | 0.00 | 0.08 | 0.08 | 69 | 1014.4 |
| 20260506201004 | 67 | 0 | 0.0 | 1.0 | 0.00 | 0.08 | 0.08 | 69 | 1014.4 |
| 20260506200505 | 67 | 0 | 0.0 | 1.0 | 0.00 | 0.08 | 0.08 | 69 | 1014.4 |
| 20260506200005 | 66 | 0 | 0.0 | 1.0 | 0.00 | 0.08 | 0.08 | 71 | 1014.6 |
| 20260506195504 | 66 | 0 | 0.0 | 0.0 | 0.00 | 0.08 | 0.08 | 70 | 1014.6 |
| 20260506195004 | 66 | 0 | 0.0 | 0.0 | 0.00 | 0.08 | 0.08 | 70 | 1014.6 |
| 20260506194505 | 65 | 0 | 0.0 | 0.0 | 0.00 | 0.08 | 0.08 | 70 | 1014.6 |
| 20260506194004 | 65 | 0 | 0.0 | 1.0 | 0.00 | 0.08 | 0.08 | 69 | 1014.8 |
| 20260506193505 | 65 | 0 | 0.0 | 1.0 | 0.00 | 0.08 | 0.08 | 71 | 1014.7 |
| 20260506192504 | 64 | 0 | 0.0 | 1.0 | 0.00 | 0.08 | 0.08 | 72 | 1015.0 |
| 20260506191504 | 64 | 0 | 0.0 | 0.0 | 0.00 | 0.08 | 0.08 | 73 | 1014.9 |
| 20260506191005 | 64 | 0 | 0.0 | 0.0 | 0.00 | 0.08 | 0.08 | 73 | 1015.0 |
| 20260506190504 | 63 | 0 | 0.0 | 0.0 | 0.00 | 0.08 | 0.08 | 73 | 1015.0 |
| 20260506190006 | 63 | 0 | 0.0 | 0.0 | 0.00 | 0.08 | 0.08 | 74 | 1015.1 |
| 20260506185504 | 63 | 0 | 0.0 | 0.0 | 0.00 | 0.08 | 0.08 | 73 | 1015.2 |
| 20260506185005 | 63 | 0 | 0.0 | 0.0 | 0.00 | 0.08 | 0.08 | 73 | 1015.2 |
| 20260506183504 | 63 | 0 | 0.0 | 0.0 | 0.00 | 0.08 | 0.08 | 73 | 1015.4 |
| 20260506183006 | 63 | 0 | 0.0 | 0.0 | 0.00 | 0.08 | 0.08 | 73 | 1015.5 |
| 20260506182504 | 63 | 0 | 0.0 | 0.0 | 0.00 | 0.08 | 0.08 | 73 | 1015.4 |
| 20260506182004 | 63 | 0 | 0.0 | 0.0 | 0.00 | 0.08 | 0.08 | 72 | 1015.5 |
| 20260506181004 | 63 | 0 | 0.0 | 0.0 | 0.00 | 0.08 | 0.08 | 72 | 1015.5 |
| 20260506180504 | 63 | 0 | 0.0 | 0.0 | 0.00 | 0.08 | 0.08 | 73 | 1015.5 |
| 20260506180005 | 63 | 0 | 0.0 | 0.0 | 0.00 | 0.08 | 0.08 | 72 | 1015.6 |
| 20260506175004 | 63 | 0 | 0.0 | 0.0 | 0.00 | 0.08 | 0.08 | 73 | 1015.6 |
| 20260506174504 | 63 | 0 | 0.0 | 0.0 | 0.00 | 0.08 | 0.08 | 73 | 1015.7 |
| 20260506174004 | 64 | 0 | 0.0 | 0.0 | 0.00 | 0.08 | 0.08 | 72 | 1015.6 |
| 20260506173504 | 63 | 0 | 0.0 | 0.0 | 0.00 | 0.08 | 0.08 | 73 | 1015.7 |
| 20260506173004 | 63 | 0 | 0.0 | 0.0 | 0.00 | 0.08 | 0.08 | 74 | 1015.8 |
| 20260506172505 | 62 | 0 | 0.0 | 5.0 | 0.00 | 0.08 | 0.08 | 75 | 1015.8 |
| 20260506172004 | 62 | 0 | 0.0 | 5.0 | 0.00 | 0.08 | 0.08 | 75 | 1015.6 |
| 20260506171505 | 62 | 354 | 1.0 | 9.0 | 0.00 | 0.08 | 0.08 | 74 | 1015.7 |
| 20260506171004 | 62 | 355 | 1.0 | 9.0 | 0.00 | 0.08 | 0.08 | 74 | 1015.6 |
| 20260506170504 | 62 | 0 | 0.0 | 7.0 | 0.00 | 0.08 | 0.08 | 75 | 1015.6 |
| 20260506170004 | 62 | 11 | 1.0 | 8.0 | 0.00 | 0.08 | 0.08 | 74 | 1015.7 |
| 20260506165504 | 62 | 20 | 1.0 | 8.0 | 0.00 | 0.08 | 0.08 | 75 | 1015.8 |
| 20260506165004 | 62 | 34 | 1.0 | 6.0 | 0.00 | 0.08 | 0.08 | 74 | 1015.7 |
| 20260506164505 | 62 | 31 | 3.0 | 8.0 | 0.00 | 0.08 | 0.08 | 75 | 1015.7 |
| 20260506164004 | 61 | 30 | 5.0 | 10.0 | 0.00 | 0.08 | 0.08 | 76 | 1015.6 |
| 20260506163504 | 61 | 25 | 3.0 | 13.0 | 0.00 | 0.08 | 0.08 | 76 | 1015.5 |
| 20260506163004 | 61 | 10 | 1.0 | 13.0 | 0.00 | 0.08 | 0.08 | 75 | 1015.4 |
| 20260506162504 | 60 | 0 | 0.0 | 0.0 | 0.00 | 0.08 | 0.08 | 77 | 1015.5 |
| 20260506162004 | 60 | 0 | 0.0 | 0.0 | 0.00 | 0.08 | 0.08 | 77 | 1015.5 |
| 20260506161505 | 60 | 0 | 0.0 | 0.0 | 0.00 | 0.08 | 0.08 | 79 | 1015.4 |
| 20260506161004 | 59 | 0 | 0.0 | 0.0 | 0.00 | 0.08 | 0.08 | 79 | 1015.3 |
| 20260506155004 | 58 | 0 | 0.0 | 1.0 | 0.00 | 0.08 | 0.08 | 81 | 1015.2 |
| 20260506154505 | 57 | 0 | 0.0 | 0.0 | 0.00 | 0.08 | 0.08 | 80 | 1015.2 |
| 20260506154004 | 57 | 0 | 0.0 | 1.0 | 0.00 | 0.08 | 0.08 | 81 | 1015.2 |
| 20260506153504 | 57 | 0 | 0.0 | 1.0 | 0.00 | 0.08 | 0.08 | 81 | 1015.1 |
| 20260506153004 | 57 | 0 | 0.0 | 0.0 | 0.00 | 0.08 | 0.08 | 82 | 1015.0 |
| 20260506152504 | 57 | 0 | 0.0 | 2.0 | 0.00 | 0.08 | 0.08 | 82 | 1015.1 |
| 20260506152004 | 57 | 0 | 0.0 | 2.0 | 0.00 | 0.08 | 0.08 | 83 | 1015.0 |
| 20260506151003 | 56 | 0 | 0.0 | 2.0 | 0.00 | 0.08 | 0.08 | 84 | 1014.7 |
| 20260506150504 | 56 | 0 | 0.0 | 3.0 | 0.00 | 0.08 | 0.08 | 84 | 1014.6 |
| 20260506144504 | 55 | 0 | 0.0 | 2.0 | 0.00 | 0.08 | 0.08 | 87 | 1014.5 |
| 20260506144004 | 55 | 0 | 0.0 | 2.0 | 0.00 | 0.08 | 0.08 | 87 | 1014.7 |
| 20260506143504 | 55 | 17 | 2.0 | 10.0 | 0.00 | 0.08 | 0.08 | 88 | 1014.7 |
| 20260506143005 | 54 | 17 | 2.0 | 10.0 | 0.00 | 0.08 | 0.08 | 89 | 1014.5 |
| 20260506142003 | 54 | 13 | 2.0 | 11.0 | 0.00 | 0.08 | 0.08 | 89 | 1014.4 |
| 20260506141505 | 54 | 16 | 5.0 | 13.0 | 0.00 | 0.08 | 0.08 | 89 | 1014.5 |
| 20260506141004 | 54 | 22 | 5.0 | 13.0 | 0.00 | 0.08 | 0.08 | 89 | 1014.0 |
| 20260506140504 | 54 | 32 | 2.0 | 10.0 | 0.00 | 0.08 | 0.08 | 90 | 1013.9 |
| 20260506140004 | 53 | 28 | 3.0 | 9.0 | 0.00 | 0.08 | 0.08 | 91 | 1014.0 |
| 20260506135504 | 53 | 30 | 2.0 | 9.0 | 0.00 | 0.08 | 0.08 | 91 | 1013.8 |
| 20260506134504 | 53 | 15 | 2.0 | 10.0 | 0.00 | 0.08 | 0.08 | 91 | 1014.0 |
| 20260506134004 | 53 | 21 | 1.0 | 13.0 | 0.00 | 0.08 | 0.08 | 91 | 1014.0 |
| 20260506133503 | 53 | 30 | 1.0 | 13.0 | 0.00 | 0.08 | 0.08 | 91 | 1014.0 |
| 20260506133005 | 53 | 19 | 1.0 | 9.0 | 0.01 | 0.08 | 0.08 | 91 | 1014.0 |
| 20260506132504 | 53 | 12 | 1.0 | 10.0 | 0.03 | 0.08 | 0.08 | 91 | 1014.0 |
| 20260506132004 | 53 | 12 | 1.0 | 11.0 | 0.05 | 0.08 | 0.08 | 90 | 1014.0 |
| 20260506130504 | 53 | 23 | 7.0 | 15.0 | 0.06 | 0.08 | 0.08 | 90 | 1013.2 |
| 20260506130005 | 53 | 16 | 8.0 | 15.0 | 0.06 | 0.08 | 0.08 | 90 | 1013.2 |
| 20260506125504 | 54 | 15 | 4.0 | 15.0 | 0.06 | 0.08 | 0.08 | 90 | 1012.7 |
| 20260506125004 | 54 | 0 | 0.0 | 6.0 | 0.07 | 0.08 | 0.08 | 90 | 1012.3 |
| 20260506124504 | 54 | 69 | 1.0 | 6.0 | 0.08 | 0.08 | 0.08 | 90 | 1013.3 |
| 20260506123004 | 54 | 0 | 0.0 | 1.0 | 0.07 | 0.07 | 0.07 | 89 | 1013.6 |
| 20260506122504 | 54 | 0 | 0.0 | 1.0 | 0.04 | 0.04 | 0.04 | 88 | 1013.5 |
| 20260506122004 | 55 | 0 | 0.0 | 7.0 | 0.03 | 0.03 | 0.03 | 87 | 1012.9 |
| 20260506121504 | 55 | 46 | 1.0 | 7.0 | 0.03 | 0.03 | 0.03 | 86 | 1012.5 |
| 20260506120504 | 55 | 0 | 0.0 | 6.0 | 0.02 | 0.02 | 0.02 | 86 | 1011.6 |
| 20260506120005 | 55 | 0 | 0.0 | 2.0 | 0.02 | 0.02 | 0.02 | 85 | 1011.4 |
| 20260506115503 | 56 | 0 | 0.0 | 1.0 | 0.02 | 0.02 | 0.02 | 83 | 1012.5 |
| 20260506115004 | 57 | 0 | 0.0 | 1.0 | 0.01 | 0.01 | 0.01 | 81 | 1012.5 |
| 20260506114504 | 57 | 0 | 0.0 | 0.0 | 0.00 | 0.00 | 0.00 | 79 | 1013.5 |